• In India
  • List of Countries
  • For 7 days
  • Water Temperature
  • Satellite Maps
  • Weather Map
  • Weather Widgets
  • user-avatar
    Login

    Hourly Weather Buesaco

    Today, 23 October, Tuesday

    Time Temperature Precipitation Wind Pressure Humidity
    00:00 +16°C° 0.1 mm 1 mps 617 mmHg 85%
    01:00 +16°C° 0.1 mm 1 mps 617 mmHg 83%
    02:00 +16°C° 0 mm 1 mps 617 mmHg 83%
    03:00 +16°C° 0 mm 1 mps 616 mmHg 83%
    04:00 +15°C° 0 mm 1 mps 616 mmHg 83%
    05:00 +16°C° 0 mm 1 mps 617 mmHg 80%
    06:00 +18°C° 0 mm 1 mps 617 mmHg 77%
    07:00 +18°C° 0 mm 1 mps 618 mmHg 74%
    08:00 +20°C° 0 mm 1 mps 619 mmHg 66%
    09:00 +23°C° 0 mm 1 mps 619 mmHg 58%
    10:00 +25°C° 0 mm 1 mps 620 mmHg 50%
    11:00 +25°C° 0 mm 2 mps 620 mmHg 50%
    12:00 +26°C° 0 mm 2 mps 619 mmHg 50%
    13:00 +26°C° 0 mm 3 mps 619 mmHg 51%
    14:00 +25°C° 0.2 mm 2 mps 618 mmHg 56%
    15:00 +24°C° 0.2 mm 2 mps 618 mmHg 62%
    16:00 +23°C° 0.2 mm 2 mps 617 mmHg 67%
    17:00 +21°C° 0.4 mm 2 mps 617 mmHg 76%
    18:00 +20°C° 0.4 mm 1 mps 617 mmHg 84%
    19:00 +18°C° 0.4 mm 1 mps 616 mmHg 92%
    20:00 +18°C° 0.3 mm 1 mps 617 mmHg 90%
    21:00 +18°C° 0.3 mm 1 mps 617 mmHg 89%
    22:00 +18°C° 0.3 mm 1 mps 618 mmHg 87%
    23:00 +18°C° 0.2 mm 1 mps 617 mmHg 86%

    Tomorrow, 24 October, Wednesday

    Time Temperature Precipitation Wind Pressure Humidity
    00:00 +16°C° 0.2 mm 1 mps 617 mmHg 84%
    01:00 +16°C° 0.2 mm 1 mps 617 mmHg 82%
    02:00 +16°C° 0.1 mm 1 mps 617 mmHg 82%
    03:00 +16°C° 0.1 mm 1 mps 617 mmHg 83%
    04:00 +16°C° 0.1 mm 1 mps 616 mmHg 83%
    05:00 +16°C° 0 mm 1 mps 617 mmHg 81%
    06:00 +18°C° 0 mm 1 mps 617 mmHg 79%
    07:00 +18°C° 0 mm 1 mps 618 mmHg 77%
    08:00 +21°C° 0 mm 1 mps 619 mmHg 70%
    09:00 +23°C° 0 mm 1 mps 620 mmHg 62%
    10:00 +25°C° 0 mm 1 mps 620 mmHg 55%
    11:00 +25°C° 0.2 mm 2 mps 620 mmHg 57%
    12:00 +25°C° 0.2 mm 2 mps 619 mmHg 60%
    13:00 +25°C° 0.2 mm 2 mps 618 mmHg 62%
    14:00 +24°C° 0.5 mm 2 mps 618 mmHg 66%
    15:00 +23°C° 0.5 mm 2 mps 617 mmHg 70%
    16:00 +23°C° 0.5 mm 2 mps 616 mmHg 74%
    17:00 +20°C° 0.9 mm 2 mps 616 mmHg 81%
    18:00 +20°C° 0.9 mm 1 mps 616 mmHg 87%
    19:00 +19°C° 0.9 mm 1 mps 616 mmHg 93%
    20:00 +19°C° 0.9 mm 1 mps 617 mmHg 93%
    21:00 +18°C° 0.9 mm 1 mps 617 mmHg 93%
    22:00 +18°C° 0.9 mm 1 mps 618 mmHg 93%
    23:00 +18°C° 0.5 mm 1 mps 618 mmHg 92%

    Day after tomorrow, 25 October, Thursday

    Time Temperature Precipitation Wind Pressure Humidity
    00:00 +18°C° 0.5 mm 1 mps 617 mmHg 92%
    01:00 +18°C° 0.5 mm 1 mps 617 mmHg 92%
    02:00 +18°C° 0.1 mm 1 mps 616 mmHg 91%
    03:00 +18°C° 0.1 mm 1 mps 616 mmHg 91%
    04:00 +16°C° 0.1 mm 1 mps 616 mmHg 90%
    05:00 +18°C° 0.1 mm 1 mps 616 mmHg 87%
    06:00 +16°C° 0.1 mm 0 mps 617 mmHg 84%
    07:00 +16°C° 0.1 mm 0 mps 617 mmHg 82%
    08:00 +20°C° 0.1 mm 1 mps 618 mmHg 75%
    09:00 +22°C° 0.1 mm 1 mps 619 mmHg 68%
    10:00 +24°C° 0.1 mm 1 mps 620 mmHg 61%
    11:00 +24°C° 0.2 mm 1 mps 619 mmHg 62%
    12:00 +24°C° 0.2 mm 1 mps 619 mmHg 63%
    13:00 +24°C° 0.2 mm 2 mps 618 mmHg 63%
    14:00 +24°C° 0.7 mm 2 mps 617 mmHg 68%
    15:00 +23°C° 0.7 mm 2 mps 617 mmHg 72%
    16:00 +21°C° 0.7 mm 2 mps 616 mmHg 76%
    17:00 +21°C° 0.9 mm 1 mps 616 mmHg 82%
    18:00 +20°C° 0.9 mm 1 mps 616 mmHg 87%
    19:00 +17°C° 0.9 mm 0 mps 616 mmHg 92%
    20:00 +17°C° 0.7 mm 0 mps 617 mmHg 92%
    21:00 +17°C° 0.7 mm 0 mps 617 mmHg 92%
    22:00 +16°C° 0.7 mm 0 mps 617 mmHg 92%
    23:00 +16°C° 0.3 mm 0 mps 617 mmHg 93%

    26 October, Friday

    Time Temperature Precipitation Wind Pressure Humidity
    00:00 +16°C° 0.3 mm 0 mps 617 mmHg 93%
    01:00 +16°C° 0.3 mm 0 mps 616 mmHg 93%
    02:00 +16°C° 0.3 mm 0 mps 616 mmHg 94%
    03:00 +16°C° 0.3 mm 0 mps 616 mmHg 94%
    04:00 +16°C° 0.3 mm 0 mps 616 mmHg 94%
    05:00 +16°C° 0.3 mm 0 mps 616 mmHg 92%
    06:00 +16°C° 0.3 mm 0 mps 617 mmHg 90%
    07:00 +17°C° 0.3 mm 0 mps 617 mmHg 88%
    08:00 +20°C° 0.1 mm 1 mps 618 mmHg 83%
    09:00 +21°C° 0.1 mm 1 mps 618 mmHg 79%
    10:00 +22°C° 0.1 mm 1 mps 619 mmHg 74%
    11:00 +22°C° 0.2 mm 1 mps 618 mmHg 74%
    12:00 +21°C° 0.2 mm 2 mps 618 mmHg 73%
    13:00 +23°C° 0.2 mm 2 mps 617 mmHg 72%
    14:00 +21°C° 0.6 mm 2 mps 617 mmHg 74%
    15:00 +22°C° 0.6 mm 1 mps 616 mmHg 76%
    16:00 +22°C° 0.6 mm 1 mps 616 mmHg 78%
    17:00 +21°C° 0.6 mm 1 mps 616 mmHg 82%
    18:00 +20°C° 0.6 mm 1 mps 617 mmHg 86%
    19:00 +19°C° 0.6 mm 1 mps 617 mmHg 90%
    20:00 +19°C° 0.8 mm 1 mps 617 mmHg 90%
    21:00 +19°C° 0.8 mm 1 mps 618 mmHg 89%
    22:00 +18°C° 0.8 mm 1 mps 618 mmHg 89%
    23:00 +18°C° 1 mm 1 mps 617 mmHg 89%

    27 October, Saturday

    Time Temperature Precipitation Wind Pressure Humidity
    00:00 +18°C° 1 mm 1 mps 617 mmHg 89%
    01:00 +18°C° 1 mm 1 mps 616 mmHg 89%
    02:00 +18°C° 0.3 mm 1 mps 616 mmHg 88%
    03:00 +18°C° 0.3 mm 1 mps 616 mmHg 88%
    04:00 +18°C° 0.3 mm 1 mps 616 mmHg 87%
    05:00 +18°C° 0 mm 1 mps 617 mmHg 86%
    06:00 +18°C° 0 mm 1 mps 617 mmHg 84%
    07:00 +19°C° 0 mm 1 mps 618 mmHg 82%
    08:00 +20°C° 0 mm 1 mps 619 mmHg 75%
    09:00 +21°C° 0 mm 2 mps 619 mmHg 68%
    10:00 +24°C° 0 mm 2 mps 620 mmHg 61%
    11:00 +24°C° 0.3 mm 2 mps 620 mmHg 63%
    12:00 +24°C° 0.3 mm 2 mps 619 mmHg 64%
    13:00 +24°C° 0.3 mm 2 mps 618 mmHg 66%
    14:00 +23°C° 0.6 mm 2 mps 618 mmHg 66%
    15:00 +23°C° 0.6 mm 2 mps 617 mmHg 66%
    16:00 +23°C° 0.6 mm 2 mps 617 mmHg 65%
    17:00 +20°C° 0.4 mm 2 mps 617 mmHg 72%
    18:00 +19°C° 0.4 mm 2 mps 617 mmHg 78%
    19:00 +18°C° 0.4 mm 1 mps 617 mmHg 85%
    20:00 +18°C° 0.3 mm 1 mps 617 mmHg 83%
    21:00 +18°C° 0.3 mm 1 mps 618 mmHg 80%
    22:00 +18°C° 0.3 mm 1 mps 618 mmHg 78%
    23:00 +16°C° 0.1 mm 1 mps 618 mmHg 77%

    28 October, Sunday

    Time Temperature Precipitation Wind Pressure Humidity
    00:00 +16°C° 0.1 mm 1 mps 617 mmHg 76%
    01:00 +16°C° 0.1 mm 1 mps 617 mmHg 75%
    02:00 +16°C° 0 mm 1 mps 616 mmHg 75%
    03:00 +16°C° 0 mm 1 mps 616 mmHg 75%
    04:00 +16°C° 0 mm 1 mps 616 mmHg 75%
    05:00 +16°C° 0 mm 1 mps 617 mmHg 73%
    06:00 +18°C° 0 mm 1 mps 618 mmHg 71%
    07:00 +19°C° 0 mm 1 mps 618 mmHg 69%
    08:00 +20°C° 0 mm 2 mps 619 mmHg 64%
    09:00 +23°C° 0 mm 2 mps 620 mmHg 59%
    10:00 +25°C° 0 mm 2 mps 621 mmHg 54%
    11:00 +25°C° 0.1 mm 2 mps 620 mmHg 55%
    12:00 +25°C° 0.1 mm 2 mps 619 mmHg 55%
    13:00 +26°C° 0.1 mm 2 mps 618 mmHg 56%
    14:00 +25°C° 0.5 mm 2 mps 618 mmHg 61%
    15:00 +24°C° 0.5 mm 2 mps 617 mmHg 65%
    16:00 +23°C° 0.5 mm 2 mps 617 mmHg 70%
    17:00 +22°C° 0.7 mm 1 mps 617 mmHg 77%
    18:00 +20°C° 0.7 mm 1 mps 617 mmHg 83%
    19:00 +19°C° 0.7 mm 1 mps 617 mmHg 90%
    20:00 +19°C° 0.9 mm 1 mps 617 mmHg 90%
    21:00 +19°C° 0.9 mm 1 mps 618 mmHg 90%
    22:00 +18°C° 0.9 mm 1 mps 618 mmHg 90%
    23:00 +18°C° 0.5 mm 1 mps 618 mmHg 90%

    29 October, Monday

    Time Temperature Precipitation Wind Pressure Humidity
    00:00 +18°C° 0.5 mm 1 mps 617 mmHg 90%
    01:00 +18°C° 0.5 mm 1 mps 617 mmHg 90%
    02:00 +16°C° 0.5 mm 1 mps 617 mmHg 89%
    03:00 +16°C° 0.5 mm 1 mps 616 mmHg 89%
    04:00 +16°C° 0.5 mm 1 mps 616 mmHg 88%
    05:00 +18°C° 0.4 mm 1 mps 617 mmHg 86%
    06:00 +18°C° 0.4 mm 1 mps 617 mmHg 84%
    07:00 +19°C° 0.4 mm 1 mps 618 mmHg 82%
    08:00 +20°C° 0.4 mm 1 mps 618 mmHg 78%
    09:00 +21°C° 0.4 mm 1 mps 619 mmHg 74%
    10:00 +21°C° 0.4 mm 2 mps 619 mmHg 70%
    11:00 +23°C° 0.7 mm 2 mps 619 mmHg 70%
    12:00 +23°C° 0.7 mm 2 mps 618 mmHg 70%
    13:00 +23°C° 0.7 mm 2 mps 618 mmHg 69%
    14:00 +23°C° 0.9 mm 2 mps 617 mmHg 72%
    15:00 +22°C° 0.9 mm 1 mps 617 mmHg 75%
    16:00 +22°C° 0.9 mm 1 mps 616 mmHg 78%
    17:00 +21°C° 1 mm 1 mps 616 mmHg 83%
    18:00 +20°C° 1 mm 1 mps 616 mmHg 87%
    19:00 +19°C° 1 mm 1 mps 617 mmHg 91%
    20:00 +19°C° 1 mm 1 mps 617 mmHg 91%
    21:00 +19°C° 1 mm 1 mps 617 mmHg 91%
    22:00 +16°C° 1 mm 0 mps 618 mmHg 91%
    23:00 +16°C° 1.1 mm 0 mps 617 mmHg 91%
    Show more